Wetterdaten: aktuell Sonntag, 09.08.2020 11:02
Datum Zeit Temp. 2m Temp. 5cm Temp. -10cm Feuchte A. Luftdruck Regen Wind Richtung Richtung Taupunkt Windchill Windben
09.08.2020 11:02 26,0 C 23,4 C 19,6 C 62 % 1020,9 hPa 0,0 l/m 3,1 km/h (1 Bft) SO 135 18,1 C 26,0 C 6,0 km/h (2 Bft)
09.08.2020 11:00 25,9 C 23,4 C 19,6 C 63 % 1020,9 hPa 0,0 l/m 3,1 km/h (1 Bft) S-SO 157 18,3 C 25,9 C 5,4 km/h (1 Bft)
09.08.2020 10:58 25,9 C 23,4 C 19,6 C 63 % 1020,9 hPa 0,0 l/m 2,9 km/h (1 Bft) SO 135 18,3 C 25,9 C 3,7 km/h (1 Bft)
09.08.2020 10:56 25,9 C 23,4 C 19,6 C 63 % 1020,9 hPa 0,0 l/m 3,1 km/h (1 Bft) S 180 18,3 C 25,9 C 4,1 km/h (1 Bft)
09.08.2020 10:54 25,8 C 23,4 C 19,5 C 63 % 1020,9 hPa 0,0 l/m 3,1 km/h (1 Bft) S-SO 157 18,2 C 25,8 C 7,3 km/h (2 Bft)
09.08.2020 10:52 25,8 C 23,4 C 19,5 C 63 % 1020,9 hPa 0,0 l/m 3,1 km/h (1 Bft) S 180 18,2 C 25,8 C 7,3 km/h (2 Bft)
09.08.2020 10:50 25,7 C 23,4 C 19,5 C 63 % 1020,9 hPa 0,0 l/m 2,7 km/h (1 Bft) S-SW 202 18,1 C 25,7 C 7,0 km/h (2 Bft)
09.08.2020 10:48 25,7 C 23,4 C 19,5 C 62 % 1020,9 hPa 0,0 l/m 2,9 km/h (1 Bft) O-SO 112 17,9 C 25,7 C 7,0 km/h (2 Bft)
09.08.2020 10:46 25,6 C 23,4 C 19,5 C 63 % 1020,9 hPa 0,0 l/m 2,4 km/h (1 Bft) S-SO 157 18,0 C 25,6 C 4,4 km/h (1 Bft)
09.08.2020 10:44 25,6 C 23,4 C 19,5 C 63 % 1020,9 hPa 0,0 l/m 2,4 km/h (1 Bft) O-SO 112 18,0 C 25,6 C 7,5 km/h (2 Bft)
09.08.2020 10:42 25,5 C 23,4 C 19,5 C 64 % 1021,0 hPa 0,0 l/m 1,9 km/h (1 Bft) O 90 18,2 C 25,5 C 7,5 km/h (2 Bft)
09.08.2020 10:40 25,4 C 23,4 C 19,5 C 65 % 1021,0 hPa 0,0 l/m 1,1 km/h (1 Bft) SO 135 18,3 C 25,4 C 3,7 km/h (1 Bft)
09.08.2020 10:38 25,3 C 23,4 C 19,5 C 64 % 1021,0 hPa 0,0 l/m 1,0 km/h (0 Bft) O-NO 67 18,0 C 25,3 C 2,5 km/h (1 Bft)
09.08.2020 10:36 25,2 C 23,4 C 19,5 C 64 % 1021,0 hPa 0,0 l/m 0,8 km/h (0 Bft) SO 135 17,9 C 25,2 C 2,9 km/h (1 Bft)
09.08.2020 10:34 25,2 C 23,4 C 19,5 C 64 % 1021,0 hPa 0,0 l/m 0,6 km/h (0 Bft) O 90 17,9 C 25,2 C 2,9 km/h (1 Bft)
09.08.2020 10:32 25,1 C 23,4 C 19,5 C 64 % 1021,0 hPa 0,0 l/m 1,1 km/h (1 Bft) N-NW 337 17,8 C 25,1 C 2,7 km/h (1 Bft)
09.08.2020 10:30 24,9 C 23,4 C 19,5 C 65 % 1021,0 hPa 0,0 l/m 1,3 km/h (1 Bft) S-SW 202 17,9 C 24,9 C 3,3 km/h (1 Bft)
09.08.2020 10:28 24,9 C 23,4 C 19,6 C 65 % 1021,0 hPa 0,0 l/m 1,8 km/h (1 Bft) O-SO 112 17,9 C 24,9 C 3,3 km/h (1 Bft)
09.08.2020 10:26 24,8 C 23,4 C 19,6 C 65 % 1021,0 hPa 0,0 l/m 1,9 km/h (1 Bft) S 180 17,8 C 24,8 C 2,9 km/h (1 Bft)
09.08.2020 10:24 24,7 C 23,4 C 19,5 C 65 % 1021,0 hPa 0,0 l/m 2,3 km/h (1 Bft) O-SO 112 17,7 C 24,7 C 7,7 km/h (2 Bft)
09.08.2020 10:22 24,6 C 23,4 C 19,5 C 65 % 1020,9 hPa 0,0 l/m 2,7 km/h (1 Bft) O-SO 112 17,6 C 24,6 C 7,7 km/h (2 Bft)
09.08.2020 10:20 24,6 C 23,4 C 19,5 C 66 % 1020,9 hPa 0,0 l/m 2,6 km/h (1 Bft) SW 225 17,8 C 24,6 C 8,7 km/h (2 Bft)
09.08.2020 10:18 24,5 C 23,4 C 19,5 C 66 % 1020,9 hPa 0,0 l/m 2,3 km/h (1 Bft) SW 225 17,7 C 24,5 C 8,7 km/h (2 Bft)
09.08.2020 10:16 24,4 C 23,4 C 19,5 C 66 % 1020,9 hPa 0,0 l/m 1,4 km/h (1 Bft) S-SW 202 17,6 C 24,4 C 2,9 km/h (1 Bft)
09.08.2020 10:14 24,3 C 23,4 C 19,5 C 66 % 1020,9 hPa 0,0 l/m 1,3 km/h (1 Bft) S-SO 157 17,5 C 24,3 C 3,7 km/h (1 Bft)
09.08.2020 10:12 24,2 C 23,4 C 19,5 C 66 % 1020,9 hPa 0,0 l/m 1,1 km/h (1 Bft) S 180 17,4 C 24,2 C 5,8 km/h (2 Bft)
09.08.2020 10:10 24,2 C 23,4 C 19,5 C 66 % 1020,9 hPa 0,0 l/m 1,0 km/h (0 Bft) W-SW 247 17,4 C 24,2 C 5,8 km/h (2 Bft)
09.08.2020 10:08 24,1 C 23,4 C 19,5 C 67 % 1020,9 hPa 0,0 l/m 1,0 km/h (0 Bft) SO 135 17,6 C 24,1 C 0,0 km/h (0 Bft)
09.08.2020 10:06 24,0 C 23,4 C 19,5 C 67 % 1020,9 hPa 0,0 l/m 1,8 km/h (1 Bft) S-SO 157 17,5 C 24,0 C 0,0 km/h (0 Bft)
09.08.2020 10:04 23,9 C 23,4 C 19,5 C 67 % 1020,9 hPa 0,0 l/m 2,3 km/h (1 Bft) W-SW 247 17,4 C 23,9 C 4,1 km/h (1 Bft)
09.08.2020 10:02 23,9 C 23,4 C 19,6 C 67 % 1021,1 hPa 0,0 l/m 2,9 km/h (1 Bft) W 270 17,4 C 23,9 C 4,1 km/h (1 Bft)
09.08.2020 10:00 23,8 C 23,4 C 19,6 C 67 % 1021,1 hPa 0,0 l/m 2,7 km/h (1 Bft) W 270 17,3 C 23,8 C 3,9 km/h (1 Bft)
09.08.2020 09:58 23,7 C 23,4 C 19,6 C 67 % 1021,1 hPa 0,0 l/m 3,1 km/h (1 Bft) W 270 17,2 C 23,7 C 9,8 km/h (2 Bft)
09.08.2020 09:56 23,6 C 23,4 C 19,5 C 67 % 1021,1 hPa 0,0 l/m 3,1 km/h (1 Bft) W 270 17,1 C 23,6 C 13,5 km/h (3 Bft)
09.08.2020 09:54 23,6 C 23,4 C 19,5 C 67 % 1021,1 hPa 0,0 l/m 3,5 km/h (1 Bft) W-SW 247 17,1 C 23,6 C 13,5 km/h (3 Bft)
09.08.2020 09:52 23,5 C 23,4 C 19,5 C 67 % 1021,1 hPa 0,0 l/m 3,5 km/h (1 Bft) W-SW 247 17,0 C 23,5 C 10,4 km/h (2 Bft)
09.08.2020 09:50 23,4 C 23,4 C 19,5 C 68 % 1021,1 hPa 0,0 l/m 3,1 km/h (1 Bft) S-SO 157 17,1 C 23,4 C 8,9 km/h (2 Bft)
09.08.2020 09:48 23,3 C 23,4 C 19,5 C 68 % 1021,1 hPa 0,0 l/m 3,5 km/h (1 Bft) W-NW 292 17,1 C 23,3 C 8,9 km/h (2 Bft)
09.08.2020 09:46 23,1 C 23,4 C 19,5 C 68 % 1021,1 hPa 0,0 l/m 4,3 km/h (1 Bft) W-SW 247 16,9 C 23,1 C 5,0 km/h (1 Bft)
09.08.2020 09:44 23,1 C 23,4 C 19,5 C 68 % 1021,1 hPa 0,0 l/m 4,2 km/h (1 Bft) SW 225 16,9 C 23,1 C 5,0 km/h (1 Bft)
09.08.2020 09:42 22,9 C 23,4 C 19,5 C 69 % 1021,1 hPa 0,0 l/m 3,9 km/h (1 Bft) W 270 16,9 C 22,9 C 3,7 km/h (1 Bft)
09.08.2020 09:40 22,9 C 23,4 C 19,5 C 69 % 1021,1 hPa 0,0 l/m 3,7 km/h (1 Bft) SW 225 16,9 C 22,9 C 9,7 km/h (2 Bft)
09.08.2020 09:38 22,8 C 23,4 C 19,5 C 69 % 1021,1 hPa 0,0 l/m 4,2 km/h (1 Bft) W-SW 247 16,8 C 22,8 C 14,9 km/h (3 Bft)
09.08.2020 09:36 22,7 C 23,4 C 19,5 C 70 % 1021,1 hPa 0,0 l/m 3,9 km/h (1 Bft) W-SW 247 16,9 C 22,7 C 14,9 km/h (3 Bft)
09.08.2020 09:34 22,7 C 23,4 C 19,5 C 70 % 1021,1 hPa 0,0 l/m 3,2 km/h (1 Bft) N-NW 337 16,9 C 22,7 C 12,9 km/h (3 Bft)
09.08.2020 09:32 22,7 C 23,4 C 19,5 C 70 % 1021,1 hPa 0,0 l/m 3,5 km/h (1 Bft) W-SW 247 16,9 C 22,7 C 12,9 km/h (3 Bft)
09.08.2020 09:30 22,5 C 23,4 C 19,5 C 70 % 1021,1 hPa 0,0 l/m 3,2 km/h (1 Bft) W 270 16,7 C 22,5 C 3,5 km/h (1 Bft)
09.08.2020 09:28 22,5 C 23,4 C 19,5 C 70 % 1021,1 hPa 0,0 l/m 3,9 km/h (1 Bft) N-NW 337 16,7 C 22,5 C 9,8 km/h (2 Bft)
09.08.2020 09:26 22,5 C 23,4 C 19,5 C 70 % 1021,1 hPa 0,0 l/m 4,3 km/h (1 Bft) W 270 16,7 C 22,5 C 21,0 km/h (4 Bft)
09.08.2020 09:24 22,4 C 23,4 C 19,5 C 70 % 1021,1 hPa 0,0 l/m 3,9 km/h (1 Bft) NW 315 16,7 C 22,4 C 3,1 km/h (1 Bft)
09.08.2020 09:22 22,3 C 23,4 C 19,5 C 70 % 1021,3 hPa 0,0 l/m 4,2 km/h (1 Bft) W-SW 247 16,6 C 22,3 C 3,1 km/h (1 Bft)
09.08.2020 09:20 22,2 C 23,4 C 19,5 C 70 % 1021,3 hPa 0,0 l/m 4,0 km/h (1 Bft) W-SW 247 16,5 C 22,2 C 7,1 km/h (2 Bft)
09.08.2020 09:18 22,1 C 23,4 C 19,5 C 70 % 1021,3 hPa 0,0 l/m 5,1 km/h (1 Bft) N-NW 337 16,4 C 22,1 C 7,1 km/h (2 Bft)
09.08.2020 09:16 22,0 C 23,4 C 19,6 C 71 % 1021,3 hPa 0,0 l/m 4,8 km/h (1 Bft) N-NW 337 16,5 C 22,0 C 20,7 km/h (4 Bft)
09.08.2020 09:14 21,9 C 23,4 C 19,6 C 71 % 1021,3 hPa 0,0 l/m 5,6 km/h (1 Bft) W 270 16,4 C 21,9 C 12,4 km/h (3 Bft)
09.08.2020 09:12 21,8 C 23,4 C 19,6 C 71 % 1021,3 hPa 0,0 l/m 4,5 km/h (1 Bft) W 270 16,3 C 21,8 C 12,4 km/h (3 Bft)
09.08.2020 09:10 21,8 C 23,4 C 19,6 C 71 % 1021,3 hPa 0,0 l/m 4,7 km/h (1 Bft) NW 315 16,3 C 21,8 C 16,8 km/h (3 Bft)
09.08.2020 09:08 21,8 C 23,4 C 19,6 C 71 % 1021,3 hPa 0,0 l/m 4,0 km/h (1 Bft) NW 315 16,3 C 21,8 C 16,8 km/h (3 Bft)
09.08.2020 09:06 21,6 C 23,4 C 19,6 C 72 % 1021,3 hPa 0,0 l/m 3,4 km/h (1 Bft) NW 315 16,3 C 21,6 C 16,0 km/h (3 Bft)
09.08.2020 09:04 21,6 C 23,4 C 19,6 C 72 % 1021,3 hPa 0,0 l/m 2,6 km/h (1 Bft) NW 315 16,3 C 21,6 C 11,4 km/h (2 Bft)
09.08.2020 09:03 21,6 C 23,4 C 19,6 C 72 % 1021,2 hPa 0,0 l/m 2,6 km/h (1 Bft) NW 315 16,3 C 21,6 C 11,4 km/h (2 Bft)
09.08.2020 09:00 21,3 C 23,4 C 19,6 C 73 % 1021,2 hPa 0,0 l/m 2,3 km/h (1 Bft) S-SO 157 16,3 C 21,3 C 4,2 km/h (1 Bft)
09.08.2020 08:58 21,3 C 23,4 C 19,6 C 73 % 1021,2 hPa 0,0 l/m 1,9 km/h (1 Bft) W 270 16,3 C 21,3 C 2,9 km/h (1 Bft)
09.08.2020 08:56 21,2 C 23,4 C 19,6 C 73 % 1021,2 hPa 0,0 l/m 1,3 km/h (1 Bft) W 270 16,2 C 21,2 C 6,4 km/h (2 Bft)
09.08.2020 08:54 21,1 C 23,4 C 19,6 C 73 % 1021,2 hPa 0,0 l/m 1,4 km/h (1 Bft) O-SO 112 16,1 C 21,1 C 4,2 km/h (1 Bft)
09.08.2020 08:52 21,1 C 23,4 C 19,6 C 73 % 1021,2 hPa 0,0 l/m 1,1 km/h (1 Bft) S-SO 157 16,1 C 21,1 C 6,4 km/h (2 Bft)
09.08.2020 08:50 21,0 C 23,4 C 19,6 C 74 % 1021,2 hPa 0,0 l/m 1,0 km/h (0 Bft) N-NO 22 16,2 C 21,0 C 6,4 km/h (2 Bft)
09.08.2020 08:48 21,0 C 23,4 C 19,6 C 74 % 1021,2 hPa 0,0 l/m 1,1 km/h (1 Bft) O 90 16,2 C 21,0 C 3,1 km/h (1 Bft)
09.08.2020 08:46 20,9 C 23,4 C 19,6 C 74 % 1021,2 hPa 0,0 l/m 1,4 km/h (1 Bft) N-NO 22 16,1 C 20,9 C 2,1 km/h (1 Bft)
09.08.2020 08:44 20,8 C 23,4 C 19,6 C 75 % 1021,2 hPa 0,0 l/m 1,8 km/h (1 Bft) SO 135 16,2 C 20,8 C 2,1 km/h (1 Bft)
09.08.2020 08:42 20,7 C 23,4 C 19,6 C 75 % 1021,2 hPa 0,0 l/m 1,8 km/h (1 Bft) O-SO 112 16,1 C 20,7 C 2,1 km/h (1 Bft)
09.08.2020 08:40 20,6 C 23,4 C 19,6 C 75 % 1021,2 hPa 0,0 l/m 1,8 km/h (1 Bft) SO 135 16,0 C 20,6 C 3,3 km/h (1 Bft)
09.08.2020 08:38 20,6 C 23,4 C 19,6 C 75 % 1021,2 hPa 0,0 l/m 1,9 km/h (1 Bft) O-SO 112 16,0 C 20,6 C 3,5 km/h (1 Bft)
09.08.2020 08:36 20,6 C 23,4 C 19,6 C 75 % 1021,2 hPa 0,0 l/m 1,8 km/h (1 Bft) O-SO 112 16,0 C 20,6 C 6,2 km/h (2 Bft)
09.08.2020 08:34 20,5 C 23,4 C 19,6 C 75 % 1021,2 hPa 0,0 l/m 1,4 km/h (1 Bft) O-SO 112 15,9 C 20,5 C 3,3 km/h (1 Bft)
09.08.2020 08:32 20,5 C 23,4 C 19,6 C 75 % 1021,2 hPa 0,0 l/m 1,9 km/h (1 Bft) O-SO 112 15,9 C 20,5 C 2,9 km/h (1 Bft)
09.08.2020 08:30 20,5 C 23,4 C 19,6 C 76 % 1021,2 hPa 0,0 l/m 1,9 km/h (1 Bft) W-NW 292 16,1 C 20,5 C 2,7 km/h (1 Bft)
09.08.2020 08:28 20,4 C 23,4 C 19,6 C 76 % 1021,2 hPa 0,0 l/m 2,3 km/h (1 Bft) O-SO 112 16,0 C 20,4 C 4,2 km/h (1 Bft)
09.08.2020 08:26 20,4 C 23,4 C 19,6 C 76 % 1021,2 hPa 0,0 l/m 2,4 km/h (1 Bft) O 90 16,0 C 20,4 C 4,2 km/h (1 Bft)
09.08.2020 08:24 20,2 C 23,4 C 19,6 C 76 % 1021,2 hPa 0,0 l/m 2,3 km/h (1 Bft) SO 135 15,8 C 20,2 C 4,6 km/h (1 Bft)
09.08.2020 08:22 20,2 C 23,4 C 19,6 C 76 % 1021,2 hPa 0,0 l/m 1,8 km/h (1 Bft) O-SO 112 15,8 C 20,2 C 4,6 km/h (1 Bft)
09.08.2020 08:20 20,1 C 23,4 C 19,6 C 77 % 1021,2 hPa 0,0 l/m 1,4 km/h (1 Bft) S-SO 157 15,9 C 20,1 C 3,1 km/h (1 Bft)
09.08.2020 08:18 20,0 C 23,4 C 19,6 C 77 % 1021,2 hPa 0,0 l/m 1,3 km/h (1 Bft) SO 135 15,8 C 20,0 C 3,1 km/h (1 Bft)
09.08.2020 08:16 19,8 C 23,4 C 19,6 C 77 % 1021,2 hPa 0,0 l/m 1,3 km/h (1 Bft) SO 135 15,6 C 19,8 C 3,1 km/h (1 Bft)
09.08.2020 08:14 19,8 C 23,4 C 19,6 C 77 % 1021,2 hPa 0,0 l/m 1,4 km/h (1 Bft) NW 315 15,6 C 19,8 C 2,1 km/h (1 Bft)
09.08.2020 08:12 19,7 C 23,4 C 19,6 C 78 % 1021,2 hPa 0,0 l/m 1,6 km/h (1 Bft) S 180 15,8 C 19,7 C 2,9 km/h (1 Bft)
09.08.2020 08:10 19,6 C 23,4 C 19,6 C 78 % 1021,2 hPa 0,0 l/m 1,4 km/h (1 Bft) O 90 15,7 C 19,6 C 2,9 km/h (1 Bft)
09.08.2020 08:08 19,5 C 23,4 C 19,6 C 78 % 1021,2 hPa 0,0 l/m 1,6 km/h (1 Bft) O-SO 112 15,6 C 19,5 C 3,9 km/h (1 Bft)
09.08.2020 08:06 19,5 C 23,4 C 19,6 C 78 % 1021,2 hPa 0,0 l/m 1,8 km/h (1 Bft) O 90 15,6 C 19,5 C 3,9 km/h (1 Bft)
09.08.2020 08:04 19,3 C 23,4 C 19,6 C 79 % 1021,2 hPa 0,0 l/m 1,8 km/h (1 Bft) NO 45 15,6 C 19,3 C 3,3 km/h (1 Bft)
09.08.2020 08:02 19,3 C 23,4 C 19,6 C 79 % 1021,2 hPa 0,0 l/m 2,1 km/h (1 Bft) NO 45 15,6 C 19,3 C 2,9 km/h (1 Bft)
09.08.2020 08:00 18,7 C 23,4 C 19,6 C 79 % 1021,2 hPa 0,0 l/m 2,4 km/h (1 Bft) O-SO 112 15,0 C 18,7 C 3,9 km/h (1 Bft)
09.08.2020 07:58 18,7 C 23,4 C 19,7 C 79 % 1021,2 hPa 0,0 l/m 2,4 km/h (1 Bft) O-SO 112 15,0 C 18,7 C 3,9 km/h (1 Bft)
09.08.2020 07:56 18,6 C 23,4 C 19,7 C 79 % 1021,2 hPa 0,0 l/m 2,4 km/h (1 Bft) NO 45 14,9 C 18,6 C 3,7 km/h (1 Bft)
09.08.2020 07:54 18,5 C 23,4 C 19,7 C 79 % 1021,2 hPa 0,0 l/m 1,9 km/h (1 Bft) O 90 14,8 C 18,5 C 3,9 km/h (1 Bft)
09.08.2020 07:52 18,3 C 23,4 C 19,7 C 79 % 1021,2 hPa 0,0 l/m 1,9 km/h (1 Bft) O-NO 67 14,6 C 18,3 C 4,1 km/h (1 Bft)
09.08.2020 07:50 18,3 C 23,4 C 19,7 C 80 % 1021,2 hPa 0,0 l/m 1,8 km/h (1 Bft) O-NO 67 14,8 C 18,3 C 4,1 km/h (1 Bft)
09.08.2020 07:48 18,2 C 23,4 C 19,7 C 80 % 1021,2 hPa 0,0 l/m 1,9 km/h (1 Bft) O-NO 67 14,7 C 18,2 C 2,9 km/h (1 Bft)
09.08.2020 07:46 18,1 C 23,4 C 19,7 C 80 % 1021,2 hPa 0,0 l/m 2,3 km/h (1 Bft) O-NO 67 14,6 C 18,1 C 2,9 km/h (1 Bft)
09.08.2020 07:44 18,0 C 23,4 C 19,7 C 80 % 1021,2 hPa 0,0 l/m 2,6 km/h (1 Bft) SO 135 14,5 C 18,0 C 3,7 km/h (1 Bft)
09.08.2020 07:42 18,0 C 23,4 C 19,7 C 80 % 1021,4 hPa 0,0 l/m 2,6 km/h (1 Bft) S-SO 157 14,5 C 18,0 C 3,7 km/h (1 Bft)
09.08.2020 07:40 18,0 C 23,4 C 19,7 C 80 % 1021,4 hPa 0,0 l/m 2,6 km/h (1 Bft) S-SO 157 14,5 C 18,0 C 3,9 km/h (1 Bft)
09.08.2020 07:38 17,9 C 23,4 C 19,7 C 80 % 1021,4 hPa 0,0 l/m 2,4 km/h (1 Bft) O-SO 112 14,4 C 17,9 C 4,4 km/h (1 Bft)
09.08.2020 07:36 17,8 C 23,4 C 19,7 C 81 % 1021,4 hPa 0,0 l/m 2,1 km/h (1 Bft) O-NO 67 14,5 C 17,8 C 4,4 km/h (1 Bft)
09.08.2020 07:34 17,7 C 23,4 C 19,7 C 81 % 1021,4 hPa 0,0 l/m 1,9 km/h (1 Bft) O-SO 112 14,4 C 17,7 C 3,5 km/h (1 Bft)
09.08.2020 07:32 17,7 C 23,4 C 19,7 C 81 % 1021,4 hPa 0,0 l/m 1,4 km/h (1 Bft) O-NO 67 14,4 C 17,7 C 3,1 km/h (1 Bft)
09.08.2020 07:30 17,6 C 23,4 C 19,7 C 81 % 1021,4 hPa 0,0 l/m 1,3 km/h (1 Bft) NO 45 14,3 C 17,6 C 2,7 km/h (1 Bft)
09.08.2020 07:28 17,6 C 23,4 C 19,7 C 81 % 1021,4 hPa 0,0 l/m 1,3 km/h (1 Bft) O-NO 67 14,3 C 17,6 C 2,7 km/h (1 Bft)
09.08.2020 07:26 17,5 C 23,4 C 19,8 C 81 % 1021,4 hPa 0,0 l/m 1,3 km/h (1 Bft) N 360 14,2 C 17,5 C 2,3 km/h (1 Bft)
09.08.2020 07:24 17,5 C 23,4 C 19,8 C 81 % 1021,4 hPa 0,0 l/m 1,1 km/h (1 Bft) O-SO 112 14,2 C 17,5 C 2,3 km/h (1 Bft)
09.08.2020 07:22 17,2 C 23,4 C 19,8 C 82 % 1021,2 hPa 0,0 l/m 1,4 km/h (1 Bft) O-NO 67 14,1 C 17,2 C 3,3 km/h (1 Bft)
09.08.2020 07:20 17,2 C 23,4 C 19,8 C 82 % 1021,2 hPa 0,0 l/m 1,6 km/h (1 Bft) O-NO 67 14,1 C 17,2 C 3,3 km/h (1 Bft)
09.08.2020 07:18 17,1 C 23,4 C 19,8 C 82 % 1021,2 hPa 0,0 l/m 1,4 km/h (1 Bft) O-SO 112 14,0 C 17,1 C 3,3 km/h (1 Bft)
09.08.2020 07:16 17,1 C 23,4 C 19,8 C 82 % 1021,2 hPa 0,0 l/m 1,1 km/h (1 Bft) O-SO 112 14,0 C 17,1 C 2,9 km/h (1 Bft)
09.08.2020 07:14 17,0 C 23,4 C 19,8 C 82 % 1021,2 hPa 0,0 l/m 0,8 km/h (0 Bft) O-SO 112 13,9 C 17,0 C 3,3 km/h (1 Bft)
09.08.2020 07:12 16,8 C 23,4 C 19,8 C 82 % 1021,2 hPa 0,0 l/m 0,8 km/h (0 Bft) O-NO 67 13,7 C 16,8 C 3,5 km/h (1 Bft)
09.08.2020 07:10 16,7 C 23,4 C 19,8 C 82 % 1021,2 hPa 0,0 l/m 0,3 km/h (0 Bft) O-NO 67 13,6 C 16,7 C 3,5 km/h (1 Bft)
09.08.2020 07:08 16,4 C 23,4 C 19,8 C 82 % 1021,2 hPa 0,0 l/m 0,0 km/h (0 Bft) O-SO 112 13,3 C 16,4 C 0,0 km/h (0 Bft)
09.08.2020 07:06 16,4 C 23,4 C 19,8 C 82 % 1021,2 hPa 0,0 l/m 0,0 km/h (0 Bft) O 90 13,3 C 16,4 C 0,0 km/h (0 Bft)
09.08.2020 07:04 16,3 C 23,4 C 19,8 C 82 % 1021,2 hPa 0,0 l/m 0,0 km/h (0 Bft) NO 45 13,2 C 16,3 C 0,0 km/h (0 Bft)
09.08.2020 07:02 16,0 C 23,4 C 19,8 C 82 % 1021,0 hPa 0,0 l/m 0,2 km/h (0 Bft) NO 45 12,9 C 16,0 C 0,0 km/h (0 Bft)
09.08.2020 07:00 16,0 C 23,4 C 19,8 C 82 % 1021,0 hPa 0,0 l/m 0,3 km/h (0 Bft) O-NO 67 12,9 C 16,0 C 0,0 km/h (0 Bft)
09.08.2020 06:58 15,7 C 23,4 C 19,8 C 83 % 1021,0 hPa 0,0 l/m 0,3 km/h (0 Bft) S-SW 202 12,8 C 15,7 C 0,0 km/h (0 Bft)
09.08.2020 06:56 15,7 C 23,4 C 19,8 C 83 % 1021,0 hPa 0,0 l/m 0,3 km/h (0 Bft) O-NO 67 12,8 C 15,7 C 0,0 km/h (0 Bft)
09.08.2020 06:54 15,7 C 23,4 C 19,8 C 83 % 1021,0 hPa 0,0 l/m 0,6 km/h (0 Bft) O 90 12,8 C 15,7 C 2,5 km/h (1 Bft)
09.08.2020 06:52 15,6 C 23,4 C 19,8 C 83 % 1021,0 hPa 0,0 l/m 0,6 km/h (0 Bft) SO 135 12,7 C 15,6 C 2,5 km/h (1 Bft)
09.08.2020 06:50 15,6 C 23,4 C 19,8 C 83 % 1021,0 hPa 0,0 l/m 0,6 km/h (0 Bft) O-NO 67 12,7 C 15,6 C 0,0 km/h (0 Bft)
09.08.2020 06:48 15,5 C 23,4 C 19,8 C 83 % 1021,0 hPa 0,0 l/m 0,6 km/h (0 Bft) NO 45 12,6 C 15,5 C 0,0 km/h (0 Bft)
09.08.2020 06:46 15,5 C 23,4 C 19,8 C 83 % 1021,0 hPa 0,0 l/m 0,8 km/h (0 Bft) O-SO 112 12,6 C 15,5 C 3,9 km/h (1 Bft)
09.08.2020 06:44 15,4 C 23,4 C 19,8 C 83 % 1021,0 hPa 0,0 l/m 0,8 km/h (0 Bft) O 90 12,5 C 15,4 C 3,9 km/h (1 Bft)
09.08.2020 06:42 15,4 C 23,4 C 19,8 C 83 % 1021,1 hPa 0,0 l/m 0,5 km/h (0 Bft) N 360 12,5 C 15,4 C 1,9 km/h (1 Bft)
09.08.2020 06:40 15,3 C 23,4 C 19,8 C 83 % 1021,1 hPa 0,0 l/m 0,5 km/h (0 Bft) N-NW 337 12,4 C 15,3 C 2,1 km/h (1 Bft)
09.08.2020 06:38 15,3 C 23,4 C 19,8 C 83 % 1021,1 hPa 0,0 l/m 0,5 km/h (0 Bft) O-NO 67 12,4 C 15,3 C 2,1 km/h (1 Bft)
09.08.2020 06:36 15,3 C 23,4 C 19,9 C 83 % 1021,1 hPa 0,0 l/m 0,2 km/h (0 Bft) NO 45 12,4 C 15,3 C 2,1 km/h (1 Bft)
09.08.2020 06:34 15,3 C 23,4 C 19,9 C 83 % 1021,1 hPa 0,0 l/m 0,2 km/h (0 Bft) NO 45 12,4 C 15,3 C 2,1 km/h (1 Bft)
09.08.2020 06:32 15,2 C 23,4 C 19,9 C 83 % 1021,1 hPa 0,0 l/m 0,3 km/h (0 Bft) O-SO 112 12,3 C 15,2 C 2,1 km/h (1 Bft)
09.08.2020 06:30 15,2 C 23,4 C 19,9 C 83 % 1021,1 hPa 0,0 l/m 0,5 km/h (0 Bft) O 90 12,3 C 15,2 C 0,0 km/h (0 Bft)
09.08.2020 06:28 15,2 C 23,4 C 19,9 C 83 % 1021,1 hPa 0,0 l/m 0,8 km/h (0 Bft) O-SO 112 12,3 C 15,2 C 0,0 km/h (0 Bft)
09.08.2020 06:26 15,2 C 23,4 C 19,9 C 83 % 1021,1 hPa 0,0 l/m 0,8 km/h (0 Bft) O 90 12,3 C 15,2 C 0,0 km/h (0 Bft)
09.08.2020 06:24 15,2 C 23,4 C 20,0 C 82 % 1021,1 hPa 0,0 l/m 0,8 km/h (0 Bft) O-SO 112 12,1 C 15,2 C 2,1 km/h (1 Bft)
09.08.2020 06:22 15,2 C 23,4 C 20,0 C 82 % 1021,0 hPa 0,0 l/m 0,6 km/h (0 Bft) O-SO 112 12,1 C 15,2 C 2,1 km/h (1 Bft)
09.08.2020 06:20 15,1 C 23,4 C 20,0 C 82 % 1021,0 hPa 0,0 l/m 0,5 km/h (0 Bft) O 90 12,0 C 15,1 C 2,7 km/h (1 Bft)
09.08.2020 06:18 15,1 C 23,4 C 20,0 C 82 % 1021,0 hPa 0,0 l/m 0,3 km/h (0 Bft) O-NO 67 12,0 C 15,1 C 2,7 km/h (1 Bft)
09.08.2020 06:16 15,1 C 23,4 C 20,0 C 82 % 1021,0 hPa 0,0 l/m 0,0 km/h (0 Bft) NO 45 12,0 C 15,1 C 0,0 km/h (0 Bft)
09.08.2020 06:14 15,1 C 23,4 C 20,0 C 82 % 1021,0 hPa 0,0 l/m 0,3 km/h (0 Bft) SW 225 12,0 C 15,1 C 0,0 km/h (0 Bft)
09.08.2020 06:12 15,1 C 23,4 C 20,0 C 82 % 1021,0 hPa 0,0 l/m 0,5 km/h (0 Bft) NO 45 12,0 C 15,1 C 0,0 km/h (0 Bft)
09.08.2020 06:10 15,1 C 23,4 C 20,0 C 82 % 1021,0 hPa 0,0 l/m 0,3 km/h (0 Bft) N-NW 337 12,0 C 15,1 C 0,0 km/h (0 Bft)
09.08.2020 06:08 15,1 C 23,4 C 20,0 C 82 % 1021,0 hPa 0,0 l/m 0,3 km/h (0 Bft) N-NW 337 12,0 C 15,1 C 0,0 km/h (0 Bft)
09.08.2020 06:06 15,1 C 23,4 C 20,0 C 82 % 1021,0 hPa 0,0 l/m 0,3 km/h (0 Bft) N-NW 337 12,0 C 15,1 C 0,0 km/h (0 Bft)
09.08.2020 06:04 15,1 C 23,4 C 20,0 C 82 % 1021,0 hPa 0,0 l/m 0,3 km/h (0 Bft) N-NW 337 12,0 C 15,1 C 0,0 km/h (0 Bft)
09.08.2020 06:02 15,1 C 23,4 C 20,0 C 82 % 1020,9 hPa 0,0 l/m 0,3 km/h (0 Bft) N-NW 337 12,0 C 15,1 C 0,0 km/h (0 Bft)
09.08.2020 06:00 15,1 C 23,4 C 20,0 C 82 % 1020,9 hPa 0,0 l/m 0,3 km/h (0 Bft) NO 45 12,0 C 15,1 C 2,7 km/h (1 Bft)
09.08.2020 05:58 15,1 C 23,4 C 20,0 C 82 % 1020,9 hPa 0,0 l/m 0,2 km/h (0 Bft) N 360 12,0 C 15,1 C 2,1 km/h (1 Bft)
09.08.2020 05:56 15,2 C 23,4 C 20,0 C 82 % 1020,9 hPa 0,0 l/m 0,2 km/h (0 Bft) N-NW 337 12,1 C 15,2 C 2,1 km/h (1 Bft)
09.08.2020 05:54 15,2 C 23,4 C 20,0 C 82 % 1020,9 hPa 0,0 l/m 0,0 km/h (0 Bft) NO 45 12,1 C 15,2 C 0,0 km/h (0 Bft)
09.08.2020 05:52 15,2 C 23,4 C 20,0 C 82 % 1020,9 hPa 0,0 l/m 0,0 km/h (0 Bft) SO 135 12,1 C 15,2 C 2,1 km/h (1 Bft)
09.08.2020 05:50 15,2 C 23,4 C 20,0 C 82 % 1020,9 hPa 0,0 l/m 0,2 km/h (0 Bft) O-SO 112 12,1 C 15,2 C 2,1 km/h (1 Bft)
09.08.2020 05:48 15,2 C 23,4 C 20,0 C 82 % 1020,9 hPa 0,0 l/m 0,2 km/h (0 Bft) O-SO 112 12,1 C 15,2 C 0,0 km/h (0 Bft)
09.08.2020 05:46 15,2 C 23,4 C 20,0 C 82 % 1020,9 hPa 0,0 l/m 0,6 km/h (0 Bft) N-NW 337 12,1 C 15,2 C 0,0 km/h (0 Bft)
09.08.2020 05:44 15,2 C 23,4 C 20,0 C 82 % 1020,9 hPa 0,0 l/m 1,1 km/h (1 Bft) NO 45 12,1 C 15,2 C 0,0 km/h (0 Bft)
09.08.2020 05:42 15,3 C 23,4 C 20,0 C 82 % 1020,9 hPa 0,0 l/m 1,3 km/h (1 Bft) SO 135 12,2 C 15,3 C 1,9 km/h (1 Bft)
09.08.2020 05:40 15,3 C 23,4 C 20,0 C 82 % 1020,9 hPa 0,0 l/m 1,3 km/h (1 Bft) SO 135 12,2 C 15,3 C 1,9 km/h (1 Bft)
09.08.2020 05:38 15,3 C 23,4 C 20,0 C 82 % 1020,9 hPa 0,0 l/m 1,0 km/h (0 Bft) NO 45 12,2 C 15,3 C 3,7 km/h (1 Bft)
09.08.2020 05:36 15,3 C 23,4 C 20,0 C 82 % 1020,9 hPa 0,0 l/m 0,8 km/h (0 Bft) NO 45 12,2 C 15,3 C 5,6 km/h (1 Bft)
09.08.2020 05:34 15,3 C 23,4 C 20,0 C 82 % 1020,9 hPa 0,0 l/m 0,3 km/h (0 Bft) N-NO 22 12,2 C 15,3 C 5,6 km/h (1 Bft)
09.08.2020 05:32 15,3 C 23,4 C 20,0 C 82 % 1020,9 hPa 0,0 l/m 0,0 km/h (0 Bft) N-NW 337 12,2 C 15,3 C 0,0 km/h (0 Bft)
09.08.2020 05:30 15,3 C 23,4 C 20,0 C 82 % 1020,9 hPa 0,0 l/m 0,0 km/h (0 Bft) N 360 12,2 C 15,3 C 0,0 km/h (0 Bft)
09.08.2020 05:28 15,3 C 23,4 C 20,0 C 82 % 1020,9 hPa 0,0 l/m 0,0 km/h (0 Bft) N 360 12,2 C 15,3 C 0,0 km/h (0 Bft)
09.08.2020 05:26 15,4 C 23,4 C 20,0 C 82 % 1020,9 hPa 0,0 l/m 0,0 km/h (0 Bft) NO 45 12,3 C 15,4 C 0,0 km/h (0 Bft)
09.08.2020 05:24 15,4 C 23,4 C 20,0 C 82 % 1020,9 hPa 0,0 l/m 0,0 km/h (0 Bft) O-SO 112 12,3 C 15,4 C 0,0 km/h (0 Bft)
09.08.2020 05:22 15,4 C 23,4 C 20,0 C 82 % 1021,4 hPa 0,0 l/m 0,0 km/h (0 Bft) NO 45 12,3 C 15,4 C 0,0 km/h (0 Bft)
09.08.2020 05:20 15,4 C 23,4 C 20,0 C 82 % 1021,4 hPa 0,0 l/m 0,0 km/h (0 Bft) O-SO 112 12,3 C 15,4 C 0,0 km/h (0 Bft)
09.08.2020 05:18 15,5 C 23,4 C 20,0 C 82 % 1021,4 hPa 0,0 l/m 0,0 km/h (0 Bft) O-NO 67 12,4 C 15,5 C 0,0 km/h (0 Bft)
09.08.2020 05:16 15,5 C 23,4 C 20,0 C 82 % 1021,4 hPa 0,0 l/m 0,0 km/h (0 Bft) O-NO 67 12,4 C 15,5 C 0,0 km/h (0 Bft)
09.08.2020 05:14 15,5 C 23,4 C 20,0 C 82 % 1021,4 hPa 0,0 l/m 0,0 km/h (0 Bft) SW 225 12,4 C 15,5 C 1,9 km/h (1 Bft)
09.08.2020 05:12 15,5 C 23,4 C 20,0 C 82 % 1021,4 hPa 0,0 l/m 0,0 km/h (0 Bft) S-SW 202 12,4 C 15,5 C 1,9 km/h (1 Bft)
09.08.2020 05:10 15,5 C 23,4 C 20,1 C 82 % 1021,4 hPa 0,0 l/m 0,2 km/h (0 Bft) NO 45 12,4 C 15,5 C 0,0 km/h (0 Bft)
09.08.2020 05:08 15,5 C 23,4 C 20,1 C 82 % 1021,4 hPa 0,0 l/m 0,2 km/h (0 Bft) NO 45 12,4 C 15,5 C 0,0 km/h (0 Bft)
09.08.2020 05:06 15,5 C 23,4 C 20,1 C 82 % 1021,4 hPa 0,0 l/m 0,2 km/h (0 Bft) N-NW 337 12,4 C 15,5 C 0,0 km/h (0 Bft)
09.08.2020 05:04 15,6 C 23,4 C 20,1 C 82 % 1021,4 hPa 0,0 l/m 0,2 km/h (0 Bft) NO 45 12,5 C 15,6 C 0,0 km/h (0 Bft)
09.08.2020 05:02 15,6 C 23,4 C 20,1 C 82 % 1021,1 hPa 0,0 l/m 0,2 km/h (0 Bft) O-SO 112 12,5 C 15,6 C 0,0 km/h (0 Bft)
09.08.2020 05:00 15,6 C 23,4 C 20,1 C 82 % 1021,1 hPa 0,0 l/m 0,0 km/h (0 Bft) SO 135 12,5 C 15,6 C 2,1 km/h (1 Bft)
09.08.2020 04:58 15,6 C 23,4 C 20,1 C 82 % 1021,1 hPa 0,0 l/m 0,0 km/h (0 Bft) O 90 12,5 C 15,6 C 0,0 km/h (0 Bft)
09.08.2020 04:56 15,6 C 23,4 C 20,1 C 82 % 1021,1 hPa 0,0 l/m 0,0 km/h (0 Bft) O-SO 112 12,5 C 15,6 C 0,0 km/h (0 Bft)
09.08.2020 04:54 15,7 C 23,4 C 20,1 C 82 % 1021,1 hPa 0,0 l/m 0,0 km/h (0 Bft) S-SW 202 12,6 C 15,7 C 0,0 km/h (0 Bft)
09.08.2020 04:52 15,7 C 23,4 C 20,1 C 82 % 1021,1 hPa 0,0 l/m 0,0 km/h (0 Bft) O 90 12,6 C 15,7 C 0,0 km/h (0 Bft)
09.08.2020 04:50 15,7 C 23,4 C 20,1 C 82 % 1021,1 hPa 0,0 l/m 0,0 km/h (0 Bft) NO 45 12,6 C 15,7 C 0,0 km/h (0 Bft)
09.08.2020 04:48 15,7 C 23,4 C 20,1 C 82 % 1021,1 hPa 0,0 l/m 0,2 km/h (0 Bft) SW 225 12,6 C 15,7 C 0,0 km/h (0 Bft)
09.08.2020 04:46 15,7 C 23,4 C 20,1 C 82 % 1021,1 hPa 0,0 l/m 0,6 km/h (0 Bft) W-SW 247 12,6 C 15,7 C 0,0 km/h (0 Bft)
09.08.2020 04:44 15,7 C 23,4 C 20,1 C 82 % 1021,1 hPa 0,0 l/m 0,6 km/h (0 Bft) NO 45 12,6 C 15,7 C 0,0 km/h (0 Bft)
09.08.2020 04:42 15,7 C 23,4 C 20,1 C 82 % 1021,1 hPa 0,0 l/m 0,8 km/h (0 Bft) O-SO 112 12,6 C 15,7 C 0,0 km/h (0 Bft)
09.08.2020 04:40 15,8 C 23,4 C 20,1 C 82 % 1021,1 hPa 0,0 l/m 0,8 km/h (0 Bft) SW 225 12,7 C 15,8 C 2,1 km/h (1 Bft)
09.08.2020 04:38 15,8 C 23,4 C 20,1 C 82 % 1021,1 hPa 0,0 l/m 0,8 km/h (0 Bft) NO 45 12,7 C 15,8 C 2,3 km/h (1 Bft)
09.08.2020 04:36 15,8 C 23,4 C 20,1 C 82 % 1021,1 hPa 0,0 l/m 0,5 km/h (0 Bft) NO 45 12,7 C 15,8 C 2,3 km/h (1 Bft)
09.08.2020 04:34 15,8 C 23,4 C 20,2 C 82 % 1021,1 hPa 0,0 l/m 0,2 km/h (0 Bft) O-SO 112 12,7 C 15,8 C 0,0 km/h (0 Bft)
09.08.2020 04:32 15,8 C 23,4 C 20,2 C 82 % 1021,1 hPa 0,0 l/m 0,0 km/h (0 Bft) SO 135 12,7 C 15,8 C 0,0 km/h (0 Bft)
09.08.2020 04:30 15,8 C 23,4 C 20,1 C 82 % 1021,1 hPa 0,0 l/m 0,0 km/h (0 Bft) O-NO 67 12,7 C 15,8 C 0,0 km/h (0 Bft)
09.08.2020 04:28 15,8 C 23,4 C 20,2 C 82 % 1021,1 hPa 0,0 l/m 0,0 km/h (0 Bft) O-NO 67 12,7 C 15,8 C 0,0 km/h (0 Bft)
09.08.2020 04:26 15,9 C 23,4 C 20,2 C 82 % 1021,1 hPa 0,0 l/m 0,0 km/h (0 Bft) SW 225 12,8 C 15,9 C 0,0 km/h (0 Bft)
09.08.2020 04:24 15,9 C 23,4 C 20,2 C 82 % 1021,1 hPa 0,0 l/m 0,0 km/h (0 Bft) SO 135 12,8 C 15,9 C 0,0 km/h (0 Bft)
09.08.2020 04:22 15,9 C 23,4 C 20,2 C 82 % 1021,2 hPa 0,0 l/m 0,0 km/h (0 Bft) O-SO 112 12,8 C 15,9 C 0,0 km/h (0 Bft)
09.08.2020 04:20 15,9 C 23,4 C 20,2 C 82 % 1021,2 hPa 0,0 l/m 0,2 km/h (0 Bft) O-SO 112 12,8 C 15,9 C 0,0 km/h (0 Bft)
09.08.2020 04:18 15,9 C 23,4 C 20,2 C 82 % 1021,2 hPa 0,0 l/m 0,2 km/h (0 Bft) S-SO 157 12,8 C 15,9 C 0,0 km/h (0 Bft)
09.08.2020 04:16 15,9 C 23,4 C 20,2 C 82 % 1021,2 hPa 0,0 l/m 0,2 km/h (0 Bft) SO 135 12,8 C 15,9 C 0,0 km/h (0 Bft)
09.08.2020 04:14 15,9 C 23,4 C 20,2 C 82 % 1021,2 hPa 0,0 l/m 0,2 km/h (0 Bft) N-NO 22 12,8 C 15,9 C 0,0 km/h (0 Bft)
09.08.2020 04:12 15,9 C 23,4 C 20,2 C 82 % 1021,2 hPa 0,0 l/m 0,5 km/h (0 Bft) NO 45 12,8 C 15,9 C 0,0 km/h (0 Bft)
09.08.2020 04:10 15,9 C 23,4 C 20,2 C 82 % 1021,2 hPa 0,0 l/m 0,3 km/h (0 Bft) O-NO 67 12,8 C 15,9 C 0,0 km/h (0 Bft)
09.08.2020 04:08 15,9 C 23,4 C 20,3 C 82 % 1021,2 hPa 0,0 l/m 0,5 km/h (0 Bft) S-SO 157 12,8 C 15,9 C 1,9 km/h (1 Bft)
09.08.2020 04:06 15,9 C 23,4 C 20,3 C 82 % 1021,2 hPa 0,0 l/m 0,5 km/h (0 Bft) S-SW 202 12,8 C 15,9 C 1,9 km/h (1 Bft)
09.08.2020 04:04 15,9 C 23,4 C 20,3 C 82 % 1021,2 hPa 0,0 l/m 0,5 km/h (0 Bft) NO 45 12,8 C 15,9 C 2,3 km/h (1 Bft)
09.08.2020 04:02 15,9 C 23,4 C 20,3 C 82 % 1021,2 hPa 0,0 l/m 0,3 km/h (0 Bft) O-NO 67 12,8 C 15,9 C 2,3 km/h (1 Bft)
09.08.2020 04:00 15,9 C 23,4 C 20,3 C 81 % 1021,2 hPa 0,0 l/m 0,2 km/h (0 Bft) O-SO 112 12,6 C 15,9 C 0,0 km/h (0 Bft)
09.08.2020 03:58 15,9 C 23,4 C 20,3 C 81 % 1021,2 hPa 0,0 l/m 0,0 km/h (0 Bft) N-NO 22 12,6 C 15,9 C 0,0 km/h (0 Bft)
09.08.2020 03:56 15,9 C 23,4 C 20,3 C 81 % 1021,2 hPa 0,0 l/m 0,0 km/h (0 Bft) N-NW 337 12,6 C 15,9 C 0,0 km/h (0 Bft)
09.08.2020 03:54 15,9 C 23,4 C 20,3 C 81 % 1021,2 hPa 0,0 l/m 0,0 km/h (0 Bft) SW 225 12,6 C 15,9 C 0,0 km/h (0 Bft)
09.08.2020 03:52 15,9 C 23,4 C 20,3 C 81 % 1021,2 hPa 0,0 l/m 0,0 km/h (0 Bft) O 90 12,6 C 15,9 C 0,0 km/h (0 Bft)
09.08.2020 03:50 15,9 C 23,4 C 20,3 C 81 % 1021,2 hPa 0,0 l/m 0,0 km/h (0 Bft) S-SW 202 12,6 C 15,9 C 0,0 km/h (0 Bft)
09.08.2020 03:48 15,9 C 23,4 C 20,3 C 81 % 1021,2 hPa 0,0 l/m 0,0 km/h (0 Bft) O-NO 67 12,6 C 15,9 C 0,0 km/h (0 Bft)
09.08.2020 03:46 15,9 C 23,4 C 20,3 C 81 % 1021,2 hPa 0,0 l/m 0,0 km/h (0 Bft) O-SO 112 12,6 C 15,9 C 0,0 km/h (0 Bft)
09.08.2020 03:44 16,0 C 23,4 C 20,3 C 81 % 1021,2 hPa 0,0 l/m 0,0 km/h (0 Bft) NW 315 12,7 C 16,0 C 0,0 km/h (0 Bft)
09.08.2020 03:42 16,0 C 23,4 C 20,3 C 81 % 1020,8 hPa 0,0 l/m 0,0 km/h (0 Bft) SO 135 12,7 C 16,0 C 0,0 km/h (0 Bft)
09.08.2020 03:40 16,0 C 23,4 C 20,3 C 81 % 1020,8 hPa 0,0 l/m 0,0 km/h (0 Bft) O-NO 67 12,7 C 16,0 C 0,0 km/h (0 Bft)
09.08.2020 03:38 16,0 C 23,4 C 20,3 C 81 % 1020,8 hPa 0,0 l/m 0,0 km/h (0 Bft) O-SO 112 12,7 C 16,0 C 0,0 km/h (0 Bft)
09.08.2020 03:36 16,0 C 23,4 C 20,3 C 81 % 1020,8 hPa 0,0 l/m 0,0 km/h (0 Bft) S-SW 202 12,7 C 16,0 C 0,0 km/h (0 Bft)
09.08.2020 03:34 16,0 C 23,4 C 20,3 C 80 % 1020,8 hPa 0,0 l/m 0,0 km/h (0 Bft) O-NO 67 12,5 C 16,0 C 0,0 km/h (0 Bft)
09.08.2020 03:32 16,1 C 23,4 C 20,3 C 80 % 1020,8 hPa 0,0 l/m 0,0 km/h (0 Bft) NO 45 12,6 C 16,1 C 0,0 km/h (0 Bft)
09.08.2020 03:30 16,1 C 23,4 C 20,3 C 80 % 1020,8 hPa 0,0 l/m 0,0 km/h (0 Bft) O-SO 112 12,6 C 16,1 C 0,0 km/h (0 Bft)
09.08.2020 03:28 16,1 C 23,4 C 20,3 C 80 % 1020,8 hPa 0,0 l/m 0,0 km/h (0 Bft) O-SO 112 12,6 C 16,1 C 0,0 km/h (0 Bft)
09.08.2020 03:26 16,1 C 23,4 C 20,3 C 80 % 1020,8 hPa 0,0 l/m 0,0 km/h (0 Bft) NO 45 12,6 C 16,1 C 0,0 km/h (0 Bft)
09.08.2020 03:24 16,1 C 23,4 C 20,3 C 80 % 1020,8 hPa 0,0 l/m 0,0 km/h (0 Bft) N 360 12,6 C 16,1 C 0,0 km/h (0 Bft)
09.08.2020 03:22 16,1 C 23,4 C 20,3 C 80 % 1021,2 hPa 0,0 l/m 0,0 km/h (0 Bft) O-NO 67 12,6 C 16,1 C 0,0 km/h (0 Bft)
09.08.2020 03:20 16,1 C 23,4 C 20,3 C 80 % 1021,2 hPa 0,0 l/m 0,0 km/h (0 Bft) O-SO 112 12,6 C 16,1 C 0,0 km/h (0 Bft)
09.08.2020 03:18 16,1 C 23,4 C 20,3 C 80 % 1021,2 hPa 0,0 l/m 0,0 km/h (0 Bft) O-NO 67 12,6 C 16,1 C 0,0 km/h (0 Bft)
09.08.2020 03:16 16,1 C 23,4 C 20,3 C 80 % 1021,2 hPa 0,0 l/m 0,0 km/h (0 Bft) N-NO 22 12,6 C 16,1 C 0,0 km/h (0 Bft)
09.08.2020 03:14 16,1 C 23,4 C 20,3 C 80 % 1021,2 hPa 0,0 l/m 0,0 km/h (0 Bft) NO 45 12,6 C 16,1 C 0,0 km/h (0 Bft)
09.08.2020 03:12 16,1 C 23,4 C 20,4 C 80 % 1021,2 hPa 0,0 l/m 0,0 km/h (0 Bft) NO 45 12,6 C 16,1 C 0,0 km/h (0 Bft)
09.08.2020 03:10 16,1 C 23,4 C 20,4 C 80 % 1021,2 hPa 0,0 l/m 0,0 km/h (0 Bft) S-SO 157 12,6 C 16,1 C 0,0 km/h (0 Bft)
09.08.2020 03:08 16,1 C 23,4 C 20,4 C 80 % 1021,2 hPa 0,0 l/m 0,0 km/h (0 Bft) SO 135 12,6 C 16,1 C 0,0 km/h (0 Bft)
09.08.2020 03:06 16,2 C 23,4 C 20,4 C 80 % 1021,2 hPa 0,0 l/m 0,0 km/h (0 Bft) SO 135 12,7 C 16,2 C 0,0 km/h (0 Bft)
09.08.2020 03:04 16,2 C 23,4 C 20,4 C 80 % 1021,2 hPa 0,0 l/m 0,0 km/h (0 Bft) N-NO 22 12,7 C 16,2 C 0,0 km/h (0 Bft)
09.08.2020 03:02 16,2 C 23,4 C 20,4 C 80 % 1021,2 hPa 0,0 l/m 0,0 km/h (0 Bft) N-NO 22 12,7 C 16,2 C 0,0 km/h (0 Bft)
09.08.2020 03:00 16,2 C 23,4 C 20,4 C 80 % 1021,2 hPa 0,0 l/m 0,0 km/h (0 Bft) N 360 12,7 C 16,2 C 0,0 km/h (0 Bft)
09.08.2020 02:58 16,2 C 23,4 C 20,4 C 80 % 1021,2 hPa 0,0 l/m 0,0 km/h (0 Bft) N 360 12,7 C 16,2 C 0,0 km/h (0 Bft)
09.08.2020 02:56 16,2 C 23,4 C 20,4 C 80 % 1021,2 hPa 0,0 l/m 0,0 km/h (0 Bft) N 360 12,7 C 16,2 C 0,0 km/h (0 Bft)
09.08.2020 02:54 16,3 C 23,4 C 20,4 C 80 % 1021,2 hPa 0,0 l/m 0,0 km/h (0 Bft) NO 45 12,8 C 16,3 C 0,0 km/h (0 Bft)
09.08.2020 02:52 16,3 C 23,4 C 20,4 C 80 % 1021,2 hPa 0,0 l/m 0,0 km/h (0 Bft) N-NO 22 12,8 C 16,3 C 0,0 km/h (0 Bft)
09.08.2020 02:50 16,3 C 23,4 C 20,4 C 80 % 1021,2 hPa 0,0 l/m 0,0 km/h (0 Bft) SO 135 12,8 C 16,3 C 0,0 km/h (0 Bft)
09.08.2020 02:48 16,3 C 23,4 C 20,4 C 80 % 1021,2 hPa 0,0 l/m 0,0 km/h (0 Bft) O-SO 112 12,8 C 16,3 C 0,0 km/h (0 Bft)
09.08.2020 02:46 16,3 C 23,4 C 20,4 C 80 % 1021,2 hPa 0,0 l/m 0,0 km/h (0 Bft) O-SO 112 12,8 C 16,3 C 0,0 km/h (0 Bft)
09.08.2020 02:44 16,4 C 23,4 C 20,4 C 80 % 1021,2 hPa 0,0 l/m 0,0 km/h (0 Bft) O-SO 112 12,9 C 16,4 C 0,0 km/h (0 Bft)
09.08.2020 02:42 16,4 C 23,4 C 20,4 C 80 % 1021,1 hPa 0,0 l/m 0,0 km/h (0 Bft) O-NO 67 12,9 C 16,4 C 0,0 km/h (0 Bft)
09.08.2020 02:40 16,4 C 23,4 C 20,4 C 80 % 1021,1 hPa 0,0 l/m 0,0 km/h (0 Bft) O-NO 67 12,9 C 16,4 C 0,0 km/h (0 Bft)
09.08.2020 02:38 16,4 C 23,4 C 20,4 C 80 % 1021,1 hPa 0,0 l/m 0,0 km/h (0 Bft) W-SW 247 12,9 C 16,4 C 0,0 km/h (0 Bft)
09.08.2020 02:36 16,4 C 23,4 C 20,9 C 80 % 1021,1 hPa 0,0 l/m 0,0 km/h (0 Bft) O-NO 67 12,9 C 16,4 C 0,0 km/h (0 Bft)
09.08.2020 02:34 16,4 C 23,4 C 20,9 C 80 % 1021,1 hPa 0,0 l/m 0,0 km/h (0 Bft) O-NO 67 12,9 C 16,4 C 0,0 km/h (0 Bft)
09.08.2020 02:32 16,5 C 23,4 C 20,9 C 80 % 1021,1 hPa 0,0 l/m 0,0 km/h (0 Bft) SO 135 13,0 C 16,5 C 0,0 km/h (0 Bft)
09.08.2020 02:30 16,5 C 23,4 C 20,9 C 80 % 1021,1 hPa 0,0 l/m 0,0 km/h (0 Bft) N-NO 22 13,0 C 16,5 C 0,0 km/h (0 Bft)
09.08.2020 02:28 16,5 C 23,4 C 20,9 C 80 % 1021,1 hPa 0,0 l/m 0,0 km/h (0 Bft) NO 45 13,0 C 16,5 C 0,0 km/h (0 Bft)
09.08.2020 02:26 16,5 C 23,4 C 20,9 C 80 % 1021,1 hPa 0,0 l/m 0,0 km/h (0 Bft) NO 45 13,0 C 16,5 C 0,0 km/h (0 Bft)
09.08.2020 02:24 16,5 C 23,4 C 20,9 C 80 % 1021,1 hPa 0,0 l/m 0,0 km/h (0 Bft) N-NO 22 13,0 C 16,5 C 0,0 km/h (0 Bft)
09.08.2020 02:22 16,5 C 23,4 C 20,9 C 80 % 1021,1 hPa 0,0 l/m 0,0 km/h (0 Bft) O-NO 67 13,0 C 16,5 C 0,0 km/h (0 Bft)
09.08.2020 02:20 16,6 C 23,4 C 20,9 C 80 % 1021,1 hPa 0,0 l/m 0,0 km/h (0 Bft) NO 45 13,1 C 16,6 C 0,0 km/h (0 Bft)
09.08.2020 02:18 16,6 C 23,4 C 20,9 C 80 % 1021,1 hPa 0,0 l/m 0,0 km/h (0 Bft) SO 135 13,1 C 16,6 C 0,0 km/h (0 Bft)
09.08.2020 02:16 16,6 C 23,4 C 20,9 C 79 % 1021,1 hPa 0,0 l/m 0,0 km/h (0 Bft) S-SO 157 12,9 C 16,6 C 0,0 km/h (0 Bft)
09.08.2020 02:14 16,6 C 23,4 C 20,9 C 79 % 1021,1 hPa 0,0 l/m 0,0 km/h (0 Bft) NO 45 12,9 C 16,6 C 0,0 km/h (0 Bft)
09.08.2020 02:12 16,7 C 23,4 C 20,9 C 79 % 1021,1 hPa 0,0 l/m 0,0 km/h (0 Bft) NO 45 13,0 C 16,7 C 0,0 km/h (0 Bft)
09.08.2020 02:10 16,7 C 23,4 C 20,9 C 79 % 1021,1 hPa 0,0 l/m 0,0 km/h (0 Bft) O-NO 67 13,0 C 16,7 C 0,0 km/h (0 Bft)
09.08.2020 02:08 16,7 C 23,4 C 20,9 C 79 % 1021,1 hPa 0,0 l/m 0,0 km/h (0 Bft) O 90 13,0 C 16,7 C 0,0 km/h (0 Bft)
09.08.2020 02:06 16,7 C 23,4 C 20,9 C 79 % 1021,1 hPa 0,0 l/m 0,0 km/h (0 Bft) O-SO 112 13,0 C 16,7 C 0,0 km/h (0 Bft)
09.08.2020 02:04 16,7 C 23,4 C 20,9 C 79 % 1021,1 hPa 0,0 l/m 0,0 km/h (0 Bft) W 270 13,0 C 16,7 C 0,0 km/h (0 Bft)
09.08.2020 02:02 16,8 C 23,4 C 20,9 C 79 % 1021,4 hPa 0,0 l/m 0,0 km/h (0 Bft) N 360 13,1 C 16,8 C 0,0 km/h (0 Bft)
09.08.2020 02:00 16,8 C 23,4 C 20,9 C 79 % 1021,4 hPa 0,0 l/m 0,0 km/h (0 Bft) S-SO 157 13,1 C 16,8 C 0,0 km/h (0 Bft)
09.08.2020 01:58 16,8 C 23,4 C 20,9 C 79 % 1021,4 hPa 0,0 l/m 0,0 km/h (0 Bft) O-NO 67 13,1 C 16,8 C 0,0 km/h (0 Bft)
09.08.2020 01:56 16,8 C 23,4 C 20,9 C 79 % 1021,4 hPa 0,0 l/m 0,0 km/h (0 Bft) O-SO 112 13,1 C 16,8 C 0,0 km/h (0 Bft)
09.08.2020 01:54 16,8 C 23,4 C 20,9 C 79 % 1021,4 hPa 0,0 l/m 0,0 km/h (0 Bft) NO 45 13,1 C 16,8 C 0,0 km/h (0 Bft)
09.08.2020 01:52 16,9 C 23,4 C 20,9 C 79 % 1021,4 hPa 0,0 l/m 0,0 km/h (0 Bft) S-SO 157 13,2 C 16,9 C 0,0 km/h (0 Bft)
09.08.2020 01:50 16,9 C 23,4 C 20,9 C 79 % 1021,4 hPa 0,0 l/m 0,0 km/h (0 Bft) O-NO 67 13,2 C 16,9 C 0,0 km/h (0 Bft)
09.08.2020 01:48 16,9 C 23,4 C 20,9 C 79 % 1021,4 hPa 0,0 l/m 0,0 km/h (0 Bft) N 360 13,2 C 16,9 C 0,0 km/h (0 Bft)
09.08.2020 01:46 16,9 C 23,4 C 20,9 C 79 % 1021,4 hPa 0,0 l/m 0,0 km/h (0 Bft) NO 45 13,2 C 16,9 C 0,0 km/h (0 Bft)
09.08.2020 01:44 16,9 C 23,4 C 20,9 C 79 % 1021,4 hPa 0,0 l/m 0,0 km/h (0 Bft) O-SO 112 13,2 C 16,9 C 0,0 km/h (0 Bft)
09.08.2020 01:42 16,9 C 23,4 C 20,9 C 79 % 1021,6 hPa 0,0 l/m 0,0 km/h (0 Bft) S 180 13,2 C 16,9 C 0,0 km/h (0 Bft)
09.08.2020 01:40 16,9 C 23,4 C 20,9 C 79 % 1021,6 hPa 0,0 l/m 0,0 km/h (0 Bft) S-SO 157 13,2 C 16,9 C 0,0 km/h (0 Bft)
09.08.2020 01:38 16,9 C 23,4 C 20,9 C 79 % 1021,6 hPa 0,0 l/m 0,0 km/h (0 Bft) N-NO 22 13,2 C 16,9 C 0,0 km/h (0 Bft)
09.08.2020 01:36 16,9 C 23,4 C 20,9 C 79 % 1021,6 hPa 0,0 l/m 0,0 km/h (0 Bft) O-NO 67 13,2 C 16,9 C 0,0 km/h (0 Bft)
09.08.2020 01:34 17,0 C 23,4 C 20,9 C 79 % 1021,6 hPa 0,0 l/m 0,0 km/h (0 Bft) W-SW 247 13,3 C 17,0 C 0,0 km/h (0 Bft)
09.08.2020 01:32 17,0 C 23,4 C 20,9 C 79 % 1021,6 hPa 0,0 l/m 0,0 km/h (0 Bft) O-NO 67 13,3 C 17,0 C 0,0 km/h (0 Bft)
09.08.2020 01:30 17,0 C 23,4 C 20,9 C 79 % 1021,6 hPa 0,0 l/m 0,0 km/h (0 Bft) N 360 13,3 C 17,0 C 0,0 km/h (0 Bft)
09.08.2020 01:28 17,0 C 23,4 C 20,9 C 79 % 1021,6 hPa 0,0 l/m 0,0 km/h (0 Bft) NO 45 13,3 C 17,0 C 0,0 km/h (0 Bft)
09.08.2020 01:26 17,1 C 23,4 C 20,9 C 79 % 1021,6 hPa 0,0 l/m 0,0 km/h (0 Bft) O-SO 112 13,4 C 17,1 C 0,0 km/h (0 Bft)
09.08.2020 01:24 17,1 C 23,4 C 20,9 C 79 % 1021,6 hPa 0,0 l/m 0,0 km/h (0 Bft) NO 45 13,4 C 17,1 C 0,0 km/h (0 Bft)
09.08.2020 01:22 17,1 C 23,4 C 20,9 C 79 % 1021,4 hPa 0,0 l/m 0,0 km/h (0 Bft) NO 45 13,4 C 17,1 C 0,0 km/h (0 Bft)
09.08.2020 01:20 17,1 C 23,4 C 20,9 C 79 % 1021,4 hPa 0,0 l/m 0,0 km/h (0 Bft) O-SO 112 13,4 C 17,1 C 0,0 km/h (0 Bft)
09.08.2020 01:19 17,1 C 23,4 C 20,9 C 79 % 1021,4 hPa 0,0 l/m 0,0 km/h (0 Bft) O-SO 112 13,4 C 17,1 C 0,0 km/h (0 Bft)
09.08.2020 01:16 17,2 C 23,4 C 20,9 C 78 % 1021,4 hPa 0,0 l/m 0,0 km/h (0 Bft) O 90 13,3 C 17,2 C 0,0 km/h (0 Bft)
09.08.2020 01:14 17,2 C 23,4 C 20,9 C 78 % 1021,4 hPa 0,0 l/m 0,0 km/h (0 Bft) O-NO 67 13,3 C 17,2 C 0,0 km/h (0 Bft)
09.08.2020 01:12 17,2 C 23,4 C 20,9 C 78 % 1021,4 hPa 0,0 l/m 0,0 km/h (0 Bft) N-NO 22 13,3 C 17,2 C 0,0 km/h (0 Bft)
09.08.2020 01:10 17,2 C 23,4 C 20,9 C 78 % 1021,4 hPa 0,0 l/m 0,0 km/h (0 Bft) O-SO 112 13,3 C 17,2 C 0,0 km/h (0 Bft)
09.08.2020 01:08 17,2 C 23,4 C 20,9 C 78 % 1021,4 hPa 0,0 l/m 0,0 km/h (0 Bft) O-NO 67 13,3 C 17,2 C 0,0 km/h (0 Bft)
09.08.2020 01:06 17,2 C 23,4 C 20,9 C 78 % 1021,4 hPa 0,0 l/m 0,0 km/h (0 Bft) N 360 13,3 C 17,2 C 0,0 km/h (0 Bft)
09.08.2020 01:04 17,2 C 23,4 C 20,9 C 78 % 1021,4 hPa 0,0 l/m 0,0 km/h (0 Bft) N 360 13,3 C 17,2 C 0,0 km/h (0 Bft)
09.08.2020 01:02 17,3 C 23,4 C 20,9 C 78 % 1021,4 hPa 0,0 l/m 0,0 km/h (0 Bft) N 360 13,4 C 17,3 C 0,0 km/h (0 Bft)
09.08.2020 01:00 17,3 C 23,4 C 20,9 C 78 % 1021,4 hPa 0,0 l/m 0,0 km/h (0 Bft) N 360 13,4 C 17,3 C 0,0 km/h (0 Bft)
09.08.2020 00:58 17,3 C 23,4 C 20,9 C 78 % 1021,4 hPa 0,0 l/m 0,0 km/h (0 Bft) O-SO 112 13,4 C 17,3 C 0,0 km/h (0 Bft)
09.08.2020 00:56 17,4 C 23,4 C 20,9 C 78 % 1021,4 hPa 0,0 l/m 0,0 km/h (0 Bft) S-SO 157 13,5 C 17,4 C 0,0 km/h (0 Bft)
09.08.2020 00:54 17,4 C 23,4 C 20,9 C 78 % 1021,4 hPa 0,0 l/m 0,0 km/h (0 Bft) NO 45 13,5 C 17,4 C 0,0 km/h (0 Bft)
09.08.2020 00:52 17,4 C 23,4 C 20,9 C 78 % 1021,4 hPa 0,0 l/m 0,0 km/h (0 Bft) W 270 13,5 C 17,4 C 0,0 km/h (0 Bft)
09.08.2020 00:50 17,4 C 23,4 C 20,9 C 78 % 1021,4 hPa 0,0 l/m 0,0 km/h (0 Bft) SO 135 13,5 C 17,4 C 0,0 km/h (0 Bft)
09.08.2020 00:48 17,5 C 23,4 C 20,9 C 78 % 1021,4 hPa 0,0 l/m 0,0 km/h (0 Bft) O-NO 67 13,6 C 17,5 C 0,0 km/h (0 Bft)
09.08.2020 00:46 17,5 C 23,4 C 20,9 C 78 % 1021,4 hPa 0,0 l/m 0,0 km/h (0 Bft) NO 45 13,6 C 17,5 C 0,0 km/h (0 Bft)
09.08.2020 00:44 17,5 C 23,4 C 20,9 C 78 % 1021,4 hPa 0,0 l/m 0,0 km/h (0 Bft) NO 45 13,6 C 17,5 C 0,0 km/h (0 Bft)
09.08.2020 00:42 17,6 C 23,4 C 20,9 C 78 % 1021,6 hPa 0,0 l/m 0,0 km/h (0 Bft) N 360 13,7 C 17,6 C 0,0 km/h (0 Bft)
09.08.2020 00:40 17,6 C 23,4 C 20,9 C 78 % 1021,6 hPa 0,0 l/m 0,0 km/h (0 Bft) NO 45 13,7 C 17,6 C 0,0 km/h (0 Bft)
09.08.2020 00:38 17,6 C 23,4 C 20,9 C 78 % 1021,6 hPa 0,0 l/m 0,0 km/h (0 Bft) O-SO 112 13,7 C 17,6 C 0,0 km/h (0 Bft)
09.08.2020 00:36 17,7 C 23,4 C 20,9 C 78 % 1021,6 hPa 0,0 l/m 0,0 km/h (0 Bft) O-SO 112 13,8 C 17,7 C 0,0 km/h (0 Bft)
09.08.2020 00:34 17,7 C 23,4 C 20,9 C 78 % 1021,6 hPa 0,0 l/m 0,0 km/h (0 Bft) O-SO 112 13,8 C 17,7 C 0,0 km/h (0 Bft)
09.08.2020 00:32 17,7 C 23,4 C 20,9 C 78 % 1021,6 hPa 0,0 l/m 0,0 km/h (0 Bft) SO 135 13,8 C 17,7 C 0,0 km/h (0 Bft)
09.08.2020 00:30 17,8 C 23,4 C 20,9 C 78 % 1021,6 hPa 0,0 l/m 0,0 km/h (0 Bft) O-SO 112 13,9 C 17,8 C 0,0 km/h (0 Bft)
09.08.2020 00:28 17,8 C 23,4 C 20,9 C 78 % 1021,6 hPa 0,0 l/m 0,0 km/h (0 Bft) O-NO 67 13,9 C 17,8 C 0,0 km/h (0 Bft)
09.08.2020 00:26 17,8 C 23,4 C 20,9 C 78 % 1021,6 hPa 0,0 l/m 0,0 km/h (0 Bft) NO 45 13,9 C 17,8 C 0,0 km/h (0 Bft)
09.08.2020 00:24 17,9 C 23,4 C 20,9 C 78 % 1021,6 hPa 0,0 l/m 0,0 km/h (0 Bft) S-SW 202 14,0 C 17,9 C 0,0 km/h (0 Bft)
09.08.2020 00:22 17,9 C 23,4 C 20,9 C 78 % 1021,4 hPa 0,0 l/m 0,0 km/h (0 Bft) O-NO 67 14,0 C 17,9 C 0,0 km/h (0 Bft)
09.08.2020 00:20 17,9 C 23,4 C 20,9 C 78 % 1021,4 hPa 0,0 l/m 0,0 km/h (0 Bft) N-NO 22 14,0 C 17,9 C 0,0 km/h (0 Bft)
09.08.2020 00:18 18,0 C 23,4 C 20,9 C 78 % 1021,4 hPa 0,0 l/m 0,0 km/h (0 Bft) N 360 14,1 C 18,0 C 0,0 km/h (0 Bft)
09.08.2020 00:16 18,0 C 23,4 C 20,9 C 78 % 1021,4 hPa 0,0 l/m 0,0 km/h (0 Bft) N 360 14,1 C 18,0 C 0,0 km/h (0 Bft)
09.08.2020 00:14 18,0 C 23,4 C 20,9 C 78 % 1021,4 hPa 0,0 l/m 0,0 km/h (0 Bft) NO 45 14,1 C 18,0 C 0,0 km/h (0 Bft)
09.08.2020 00:12 18,0 C 23,4 C 20,9 C 78 % 1021,4 hPa 0,0 l/m 0,0 km/h (0 Bft) O-SO 112 14,1 C 18,0 C 0,0 km/h (0 Bft)
09.08.2020 00:10 18,1 C 23,4 C 20,9 C 78 % 1021,4 hPa 0,0 l/m 0,0 km/h (0 Bft) O-SO 112 14,2 C 18,1 C 0,0 km/h (0 Bft)
09.08.2020 00:08 18,1 C 23,4 C 20,9 C 78 % 1021,4 hPa 0,0 l/m 0,0 km/h (0 Bft) O-SO 112 14,2 C 18,1 C 0,0 km/h (0 Bft)
09.08.2020 00:06 18,1 C 23,4 C 20,9 C 78 % 1021,4 hPa 0,0 l/m 0,0 km/h (0 Bft) O-SO 112 14,2 C 18,1 C 0,0 km/h (0 Bft)
09.08.2020 00:04 18,1 C 23,4 C 20,9 C 78 % 1021,4 hPa 0,0 l/m 0,0 km/h (0 Bft) O-SO 112 14,2 C 18,1 C 0,0 km/h (0 Bft)
09.08.2020 00:02 18,1 C 23,4 C 20,9 C 78 % 1021,7 hPa 0,0 l/m 0,0 km/h (0 Bft) O-SO 112 14,2 C 18,1 C 0,0 km/h (0 Bft)
09.08.2020 00:00 18,1 C 23,4 C 20,9 C 78 % 1021,7 hPa 0,0 l/m 0,0 km/h (0 Bft) O-SO 112 14,2 C 18,1 C 0,0 km/h (0 Bft)
_ Min-Zeit 05:58 00:00 09:18 10:48 03:24 - 00:00 - - 05:58 05:58 00:00
Minimum _ 15,1 C 23,4 C 19,5 C 62 % 1020,8 hPa - 0,0 km/h (0 Bft) - - 12,0 C 15,1 C 0,0 km/h (0 Bft)
_ Max-Zeit 11:02 00:00 00:00 06:26 00:00 00:00 09:14 - - 10:40 11:02 09:26
Maximum _ 26,0 C 23,4 C 20,9 C 83 % 1021,7 hPa 0,0 l/m 5,6 km/h
W (1 Bft)
- - 18,3 C 26,0 C 21,0 km/h
W (4 Bft)
Durchschnitt _ 18,1 C 23,4 C 20,1 C 78 % 1021,2 hPa #0,0 l/m 0,9 km/h (0 Bft) O-SO - 14,1 C 18,1 C 2,3 km/h (1 Bft)